Погода в Пушкино

Россия / Омская область     55°05′34″N   73°28′11″E
темп.,
°C
ветер,
м/с
пор.,
м/с
влажн.,
%
обл.,
%
осадки,
мм/ч
давл.,
гПа
погр.,
м
24 января, пн
пн2400:00−25зсз2210068 0.0 104010
03:00−25зсз2210072 0.0 104010
06:00−26з1110050 0.0 10419
09:00−26зюз2210060 0.0 104110
12:00−18з239620 0.0 104179
15:00−14з249253 0.0 1040119
18:00−20юз229896 0.0 104017
21:00−19юз2494100 0.0 103970
25 января, вт
вт2500:00−18юз2592100 0.0 1038101
03:00−18ююз3793100 0.0 1036108
06:00−16юз3993100 0.0 1034194
09:00−14ююз4993100 0.0 1032235
12:00−12юз4991100 0.1 1031304
15:00−10зюз4789100 0.0 1029335
18:00−11юз4796100 0.3 1028290
21:00−11юз3796100 0.7 1026270
26 января, ср
ср2600:00−10юз3896100 1.4 1025285
03:00−11зюз269793 0.4 1024140
06:00−14зсз239876 0.5 102541
09:00−19сз2210098 0.0 10269
12:00−13ссз239890 0.1 102782
15:00−11с239540 0.0 1028108
18:00−19ссв1110060 0.0 10319
21:00−21юв1110097 0.0 10329
27 января, чт
чт2700:00−23ююз11100100 0.0 10349
03:00−24ю22100100 0.0 103410
06:00−25ю22100100 0.0 103519
09:00−23ю24100100 0.0 103645
12:00−16ю369999 0.1 1035138
15:00−13ю369585 0.0 1034194
18:00−18ююв379832 0.0 103485
21:00−20ююв36988 0.0 103475
28 января, пт
пт2800:00−21ююв379719 0.0 103483
03:00−22ю2498100 0.0 103342
06:00−21ю3696100 0.0 103365
09:00−22ююв2496100 0.0 103345
12:00−15ю3686100 0.0 1032143
15:00−13ю2689100 0.0 1031193
18:00−16ююв3693100 0.0 103181
21:00−17ююв3794100 0.0 103184